| time (UTC) | temp C | wind direction | speed KPH | gust KPH | rain 1hr cm | rain 24hr cm | rain mn cm | humidity % | barometer mb |
| 20260504223028 | 12 | 16 | 3.2 | 8.0 | 0.00 | 0.00 | 0.00 | 82 | 1012.8 |
| 20260504222028 | 12 | 16 | 3.2 | 6.4 | 0.00 | 0.00 | 0.00 | 81 | 1012.8 |
| 20260504215025 | 13 | 46 | 3.2 | 8.0 | 0.00 | 0.00 | 0.00 | 80 | 1012.8 |
| 20260504214021 | 13 | 48 | 3.2 | 8.0 | 0.00 | 0.00 | 0.00 | 79 | 1012.8 |
| 20260504213030 | 13 | 51 | 3.2 | 9.7 | 0.00 | 0.00 | 0.00 | 79 | 1012.8 |
| 20260504212022 | 14 | 46 | 3.2 | 8.0 | 0.00 | 0.00 | 0.00 | 77 | 1012.8 |
| 20260504211020 | 14 | 39 | 4.8 | 12.9 | 0.00 | 0.00 | 0.00 | 77 | 1012.9 |
| 20260504205027 | 15 | 36 | 4.8 | 12.9 | 0.00 | 0.00 | 0.00 | 75 | 1012.9 |
| 20260504204019 | 15 | 43 | 4.8 | 14.5 | 0.00 | 0.00 | 0.00 | 75 | 1012.9 |
| 20260504203022 | 15 | 36 | 4.8 | 12.9 | 0.00 | 0.00 | 0.00 | 73 | 1012.9 |
| 20260504202031 | 16 | 43 | 4.8 | 14.5 | 0.00 | 0.00 | 0.00 | 73 | 1012.9 |
| 20260504201029 | 16 | 34 | 9.7 | 17.7 | 0.00 | 0.00 | 0.00 | 72 | 1012.5 |
| 20260504193029 | 16 | 25 | 9.7 | 17.7 | 0.00 | 0.00 | 0.00 | 70 | 1012.5 |
| 20260504192020 | 17 | 35 | 9.7 | 17.7 | 0.00 | 0.00 | 0.00 | 69 | 1012.5 |
| 20260504191027 | 17 | 351 | 8.0 | 17.7 | 0.00 | 0.00 | 0.00 | 69 | 1011.9 |
| 20260504190029 | 17 | 353 | 8.0 | 17.7 | 0.00 | 0.00 | 0.00 | 68 | 1011.9 |
| 20260504185024 | 17 | 350 | 8.0 | 17.7 | 0.00 | 0.00 | 0.00 | 66 | 1011.9 |
| 20260504184022 | 18 | 347 | 8.0 | 17.7 | 0.00 | 0.00 | 0.00 | 65 | 1011.9 |
| 20260504183028 | 19 | 351 | 9.7 | 19.3 | 0.00 | 0.00 | 0.00 | 63 | 1011.9 |
| 20260504182023 | 19 | 351 | 8.0 | 17.7 | 0.00 | 0.00 | 0.00 | 62 | 1011.9 |
| 20260504181017 | 20 | 311 | 8.0 | 19.3 | 0.00 | 0.00 | 0.00 | 60 | 1011.7 |
| 20260504180019 | 20 | 307 | 8.0 | 19.3 | 0.00 | 0.00 | 0.00 | 59 | 1011.7 |
| 20260504175019 | 20 | 306 | 8.0 | 19.3 | 0.00 | 0.00 | 0.00 | 59 | 1011.7 |
| 20260504174021 | 21 | 308 | 6.4 | 17.7 | 0.00 | 0.00 | 0.00 | 57 | 1011.7 |
| 20260504173021 | 21 | 312 | 8.0 | 19.3 | 0.00 | 0.00 | 0.00 | 56 | 1011.7 |
| 20260504171027 | 21 | 300 | 14.5 | 24.1 | 0.00 | 0.00 | 0.00 | 54 | 1011.6 |
| 20260504151030 | 25 | 286 | 17.7 | 30.6 | 0.00 | 0.00 | 0.00 | 49 | 1012.0 |
| 20260504141018 | 23 | 285 | 14.5 | 35.4 | 0.00 | 0.00 | 0.00 | 51 | 1011.9 |
| 20260504050020 | 16 | 246 | 12.9 | 22.5 | 0.00 | 0.00 | 0.00 | 68 | 1010.8 |
| 20260504045017 | 16 | 250 | 12.9 | 22.5 | 0.00 | 0.00 | 0.00 | 68 | 1010.8 |
| 20260504044024 | 16 | 253 | 11.3 | 20.9 | 0.00 | 0.00 | 0.00 | 68 | 1010.8 |
| 20260504043025 | 16 | 250 | 11.3 | 20.9 | 0.00 | 0.00 | 0.00 | 67 | 1010.8 |
| 20260504042017 | 16 | 254 | 12.9 | 20.9 | 0.00 | 0.00 | 0.00 | 66 | 1010.8 |
| 20260504041016 | 17 | 255 | 8.0 | 22.5 | 0.00 | 0.00 | 0.00 | 64 | 1010.8 |
| 20260504035020 | 17 | 251 | 8.0 | 22.5 | 0.00 | 0.00 | 0.00 | 60 | 1010.8 |
| 20260504034023 | 17 | 256 | 8.0 | 20.9 | 0.00 | 0.00 | 0.00 | 60 | 1010.8 |
| 20260504033020 | 17 | 251 | 8.0 | 22.5 | 0.00 | 0.00 | 0.00 | 59 | 1010.8 |
| 20260504032027 | 17 | 256 | 9.7 | 22.5 | 0.00 | 0.00 | 0.00 | 58 | 1010.8 |
| 20260504031016 | 17 | 275 | 12.9 | 22.5 | 0.00 | 0.00 | 0.00 | 58 | 1010.5 |
| 20260504030016 | 17 | 264 | 12.9 | 22.5 | 0.00 | 0.00 | 0.00 | 57 | 1010.5 |
| 20260504025020 | 17 | 265 | 14.5 | 24.1 | 0.00 | 0.00 | 0.00 | 57 | 1010.5 |
| 20260504024026 | 17 | 275 | 14.5 | 24.1 | 0.00 | 0.00 | 0.00 | 55 | 1010.5 |
| 20260504022020 | 17 | 264 | 14.5 | 24.1 | 0.00 | 0.00 | 0.00 | 55 | 1010.5 |
| 20260504021023 | 17 | 284 | 19.3 | 32.2 | 0.00 | 0.00 | 0.00 | 54 | 1010.2 |
| 20260504020027 | 17 | 285 | 19.3 | 33.8 | 0.00 | 0.00 | 0.00 | 54 | 1010.2 |
| 20260504015015 | 18 | 284 | 19.3 | 32.2 | 0.00 | 0.00 | 0.00 | 52 | 1010.2 |
| 20260504013018 | 18 | 286 | 19.3 | 32.2 | 0.00 | 0.00 | 0.00 | 50 | 1010.2 |
| 20260504012029 | 18 | 280 | 19.3 | 33.8 | 0.00 | 0.00 | 0.00 | 49 | 1010.2 |
| 20260504011027 | 19 | 281 | 17.7 | 30.6 | 0.00 | 0.00 | 0.00 | 48 | 1010.2 |
| 20260504010020 | 19 | 279 | 19.3 | 32.2 | 0.00 | 0.00 | 0.00 | 47 | 1010.2 |
| 20260504003024 | 19 | 280 | 19.3 | 32.2 | 0.00 | 0.00 | 0.00 | 46 | 1010.2 |
| 20260504002030 | 20 | 280 | 19.3 | 32.2 | 0.00 | 0.00 | 0.00 | 46 | 1010.2 |
| 20260504001026 | 20 | 254 | 11.3 | 17.7 | 0.00 | 0.00 | 0.00 | 46 | 1010.1 |
| 20260503235031 | 20 | 261 | 11.3 | 19.3 | 0.00 | 0.00 | 0.00 | 46 | 1010.1 |
| 20260503234021 | 20 | 264 | 11.3 | 19.3 | 0.00 | 0.00 | 0.00 | 46 | 1010.1 |
| 20260503233030 | 18 | 265 | 11.3 | 17.7 | 0.00 | 0.00 | 0.00 | 49 | 1010.1 |
| 20260503232019 | 18 | 260 | 11.3 | 19.3 | 0.00 | 0.00 | 0.00 | 50 | 1010.1 |
| 20260503231018 | 18 | 185 | 3.2 | 11.3 | 0.00 | 0.00 | 0.00 | 51 | 1010.3 |
| 20260503225023 | 18 | 186 | 3.2 | 11.3 | 0.00 | 0.00 | 0.00 | 51 | 1010.3 |